Powrót do katalogu

ARIANE 42P R/B

AktywnyLEO
NORAD 22079·ROCKET BODY·🇫🇷 France

Wystrzelony Aug 10, 1992 z Guiana Space Centre

Loading…

Następne Przeloty (najbliższe 24 godziny)

TLE

ŚwieżeSource: Space-Track

Epoka: Sep 14, 2026, 13:49 UTC

1 22079U 92052D   26257.57600594 -.00000001  00000-0  26524-3 0  9990
2 22079  66.0645 121.5218 0076197 264.3316 110.2888 12.77965305590810

Śledź ARIANE 42P R/B w czasie rzeczywistym z AllMySat

Download on the App Store